Time,TemperatureF,DewpointF,PressureIn,WindDirection,WindDirectionDegrees,WindSpeedMPH,WindSpeedGustMPH,Humidity,HourlyPrecipIn,Conditions,Clouds,dailyrainin,SoftwareType,DateUTC
2013-01-03 00:03:00,3.0,-1.0,-100.00,ESE,120,3.0,4.0,82,0.00,,,-99.99,,2013-01-03 05:03:00,
2013-01-03 00:12:00,2.0,-2.0,-100.00,SE,130,3.0,4.0,82,0.00,,,-99.99,,2013-01-03 05:12:00,
2013-01-03 00:22:00,1.0,-3.0,-100.00,East,100,4.0,5.0,83,0.00,,,-99.99,,2013-01-03 05:22:00,
2013-01-03 00:33:00,0.0,-4.0,-100.00,East,95,3.0,4.0,83,0.00,,,-99.99,,2013-01-03 05:33:00,
2013-01-03 00:42:00,-1.0,-4.0,-100.00,East,100,3.0,4.0,84,0.00,,,-99.99,,2013-01-03 05:42:00,
2013-01-03 00:52:00,-1.0,-5.0,-100.00,SE,130,3.0,4.0,84,0.00,,,-99.99,,2013-01-03 05:52:00,
2013-01-03 01:02:00,-2.0,-6.0,-100.00,SE,125,3.0,5.0,84,0.00,,,-99.99,,2013-01-03 06:02:00,
2013-01-03 01:12:00,-3.0,-6.0,-100.00,ESE,120,4.0,5.0,85,0.00,,,-99.99,,2013-01-03 06:12:00,
2013-01-03 01:22:00,-3.0,-6.0,-100.00,ESE,120,4.0,6.0,86,0.00,,,-99.99,,2013-01-03 06:22:00,
2013-01-03 01:32:00,-3.0,-7.0,-100.00,East,100,4.0,7.0,86,0.00,,,-99.99,,2013-01-03 06:32:00,
2013-01-03 01:42:00,-4.0,-7.0,-100.00,SE,125,2.0,5.0,86,0.00,,,-99.99,,2013-01-03 06:42:00,
2013-01-03 01:52:00,-5.0,-7.0,-100.00,ESE,105,4.0,5.0,86,0.00,,,-99.99,,2013-01-03 06:52:00,
2013-01-03 02:02:00,-5.0,-8.0,-100.00,East,100,4.0,6.0,87,0.00,,,-99.99,,2013-01-03 07:02:00,
2013-01-03 02:12:00,-5.0,-8.0,-100.00,ESE,115,6.0,7.0,87,0.00,,,-99.99,,2013-01-03 07:12:00,
2013-01-03 02:22:00,-5.0,-8.0,-100.00,ESE,110,4.0,6.0,88,0.00,,,-99.99,,2013-01-03 07:22:00,
2013-01-03 02:33:00,-6.0,-9.0,-100.00,ESE,110,6.0,6.0,88,0.00,,,-99.99,,2013-01-03 07:33:00,
2013-01-03 02:42:00,-6.0,-9.0,-100.00,ESE,110,4.0,7.0,88,0.00,,,-99.99,,2013-01-03 07:42:00,
2013-01-03 02:52:00,-7.0,-9.0,-100.00,ESE,110,6.0,6.0,88,0.00,,,-99.99,,2013-01-03 07:52:00,
2013-01-03 03:02:00,-7.0,-10.0,-100.00,ESE,105,6.0,6.0,88,0.00,,,-99.99,,2013-01-03 08:02:00,
2013-01-03 03:12:00,-7.0,-10.0,-100.00,ESE,105,6.0,6.0,88,0.00,,,-99.99,,2013-01-03 08:12:00,
2013-01-03 03:22:00,-7.0,-10.0,-100.00,East,100,4.0,6.0,88,0.00,,,-99.99,,2013-01-03 08:22:00,
2013-01-03 03:32:00,-7.0,-10.0,-100.00,East,100,5.0,6.0,88,0.00,,,-99.99,,2013-01-03 08:32:00,
2013-01-03 03:42:00,-8.0,-10.0,-100.00,East,100,4.0,7.0,88,0.00,,,-99.99,,2013-01-03 08:42:00,
2013-01-03 03:53:00,-8.0,-11.0,-100.00,ESE,110,6.0,6.0,88,0.00,,,-99.99,,2013-01-03 08:53:00,
2013-01-03 04:02:00,-8.0,-11.0,-100.00,ESE,115,6.0,7.0,89,0.00,,,-99.99,,2013-01-03 09:02:00,
2013-01-03 04:12:00,-9.0,-11.0,-100.00,East,100,6.0,7.0,89,0.00,,,-99.99,,2013-01-03 09:12:00,
2013-01-03 04:22:00,-9.0,-11.0,-100.00,East,100,7.0,8.0,89,0.00,,,-99.99,,2013-01-03 09:22:00,
2013-01-03 04:33:00,-9.0,-11.0,-100.00,ESE,105,6.0,8.0,89,0.00,,,-99.99,,2013-01-03 09:33:00,
2013-01-03 04:43:00,-9.0,-11.0,-100.00,East,95,5.0,6.0,89,0.00,,,-99.99,,2013-01-03 09:43:00,
2013-01-03 04:52:00,-10.0,-12.0,-100.00,ESE,105,6.0,7.0,89,0.00,,,-99.99,,2013-01-03 09:52:00,
2013-01-03 05:02:00,-10.0,-12.0,-100.00,East,90,4.0,7.0,89,0.00,,,-99.99,,2013-01-03 10:02:00,
2013-01-03 05:12:00,-10.0,-12.0,-100.00,ESE,110,6.0,7.0,89,0.00,,,-99.99,,2013-01-03 10:12:00,
2013-01-03 05:22:00,-10.0,-12.0,-100.00,East,95,4.0,6.0,89,0.00,,,-99.99,,2013-01-03 10:22:00,
2013-01-03 05:33:00,-10.0,-12.0,-100.00,ESE,105,6.0,6.0,89,0.00,,,-99.99,,2013-01-03 10:33:00,
2013-01-03 05:42:00,-10.0,-12.0,-100.00,East,90,5.0,6.0,89,0.00,,,-99.99,,2013-01-03 10:42:00,
2013-01-03 05:52:00,-10.0,-12.0,-100.00,ESE,105,4.0,6.0,89,0.00,,,-99.99,,2013-01-03 10:52:00,
2013-01-03 06:02:00,-10.0,-12.0,-100.00,ESE,110,6.0,6.0,89,0.00,,,-99.99,,2013-01-03 11:02:00,
2013-01-03 06:12:00,-11.0,-13.0,-100.00,ESE,115,6.0,7.0,89,0.00,,,-99.99,,2013-01-03 11:12:00,
2013-01-03 06:22:00,-11.0,-13.0,-100.00,East,100,6.0,7.0,89,0.00,,,-99.99,,2013-01-03 11:22:00,
2013-01-03 06:33:00,-11.0,-13.0,-100.00,East,100,4.0,7.0,89,0.00,,,-99.99,,2013-01-03 11:33:00,
2013-01-03 06:43:00,-11.0,-13.0,-100.00,East,90,6.0,6.0,89,0.00,,,-99.99,,2013-01-03 11:43:00,
2013-01-03 06:53:00,-11.0,-14.0,-100.00,East,90,4.0,6.0,89,0.00,,,-99.99,,2013-01-03 11:53:00,
2013-01-03 07:03:00,-11.0,-13.0,-100.00,East,90,4.0,6.0,89,0.00,,,-99.99,,2013-01-03 12:03:00,
2013-01-03 07:12:00,-12.0,-14.0,-100.00,ESE,105,6.0,7.0,89,0.00,,,-99.99,,2013-01-03 12:12:00,
2013-01-03 07:22:00,-12.0,-14.0,-100.00,East,100,5.0,7.0,89,0.00,,,-99.99,,2013-01-03 12:22:00,
2013-01-03 07:33:00,-12.0,-15.0,-100.00,East,90,4.0,7.0,89,0.00,,,-99.99,,2013-01-03 12:33:00,
2013-01-03 07:42:00,-12.0,-14.0,-100.00,East,90,5.0,6.0,89,0.00,,,-99.99,,2013-01-03 12:42:00,
2013-01-03 07:52:00,-12.0,-14.0,-100.00,ESE,105,6.0,7.0,89,0.00,,,-99.99,,2013-01-03 12:52:00,
2013-01-03 08:02:00,-13.0,-15.0,-100.00,East,100,6.0,8.0,89,0.00,,,-99.99,,2013-01-03 13:02:00,
2013-01-03 08:13:00,-13.0,-15.0,-100.00,East,95,6.0,7.0,89,0.00,,,-99.99,,2013-01-03 13:13:00,
2013-01-03 08:22:00,-12.0,-15.0,-100.00,East,85,6.0,8.0,89,0.00,,,-99.99,,2013-01-03 13:22:00,
2013-01-03 08:33:00,-12.0,-14.0,-100.00,East,100,4.0,6.0,89,0.00,,,-99.99,,2013-01-03 13:33:00,
2013-01-03 08:42:00,-12.0,-14.0,-100.00,East,90,5.0,6.0,89,0.00,,,-99.99,,2013-01-03 13:42:00,
2013-01-03 08:52:00,-13.0,-15.0,-100.00,East,95,5.0,6.0,89,0.00,,,-99.99,,2013-01-03 13:52:00,
2013-01-03 09:03:00,-12.0,-15.0,-100.00,East,100,4.0,6.0,89,0.00,,,-99.99,,2013-01-03 14:03:00,
2013-01-03 09:12:00,-13.0,-15.0,-100.00,ESE,110,6.0,7.0,89,0.00,,,-99.99,,2013-01-03 14:12:00,
2013-01-03 09:23:00,-12.0,-14.0,-100.00,East,95,4.0,7.0,89,0.00,,,-99.99,,2013-01-03 14:23:00,
2013-01-03 09:33:00,-13.0,-15.0,-100.00,East,100,4.0,6.0,89,0.00,,,-99.99,,2013-01-03 14:33:00,
2013-01-03 09:42:00,-13.0,-15.0,-100.00,East,90,4.0,7.0,89,0.00,,,-99.99,,2013-01-03 14:42:00,
2013-01-03 09:53:00,-13.0,-15.0,-100.00,East,95,6.0,6.0,89,0.00,,,-99.99,,2013-01-03 14:53:00,
2013-01-03 10:03:00,-13.0,-15.0,-100.00,East,100,6.0,6.0,89,0.00,,,-99.99,,2013-01-03 15:03:00,
2013-01-03 10:12:00,-13.0,-15.0,-100.00,ESE,120,6.0,7.0,89,0.00,,,-99.99,,2013-01-03 15:12:00,
2013-01-03 10:22:00,-13.0,-15.0,-100.00,ESE,105,5.0,6.0,89,0.00,,,-99.99,,2013-01-03 15:22:00,
2013-01-03 10:33:00,-12.0,-14.0,-100.00,East,95,6.0,6.0,89,0.00,,,-99.99,,2013-01-03 15:33:00,
2013-01-03 10:43:00,-13.0,-15.0,-100.00,ESE,110,6.0,7.0,89,0.00,,,-99.99,,2013-01-03 15:43:00,
2013-01-03 10:53:00,-10.0,-13.0,-100.00,East,95,6.0,7.0,89,0.00,,,-99.99,,2013-01-03 15:53:00,
2013-01-03 11:03:00,-9.0,-11.0,-100.00,East,100,5.0,7.0,89,0.00,,,-99.99,,2013-01-03 16:03:00,
2013-01-03 11:12:00,-8.0,-10.0,-100.00,East,100,4.0,6.0,89,0.00,,,-99.99,,2013-01-03 16:12:00,
2013-01-03 11:22:00,-5.0,-8.0,-100.00,East,80,4.0,5.0,89,0.00,,,-99.99,,2013-01-03 16:22:00,
2013-01-03 11:33:00,-4.0,-6.0,-100.00,East,90,5.0,6.0,89,0.00,,,-99.99,,2013-01-03 16:33:00,
2013-01-03 11:43:00,-1.0,-3.0,-100.00,ENE,70,4.0,6.0,90,0.00,,,-99.99,,2013-01-03 16:43:00,
2013-01-03 11:53:00,1.0,-1.0,-100.00,East,85,2.0,5.0,90,0.00,,,-99.99,,2013-01-03 16:53:00,
2013-01-03 12:03:00,2.0,-1.0,-100.00,NE,50,4.0,7.0,90,0.00,,,-99.99,,2013-01-03 17:03:00,
2013-01-03 12:12:00,3.0,1.0,-100.00,ENE,70,4.0,6.0,90,0.00,,,-99.99,,2013-01-03 17:12:00,
2013-01-03 12:23:00,5.0,3.0,-100.00,East,90,4.0,6.0,89,0.00,,,-99.99,,2013-01-03 17:23:00,
2013-01-03 12:33:00,6.0,4.0,-100.00,ENE,70,3.0,6.0,88,0.00,,,-99.99,,2013-01-03 17:33:00,
2013-01-03 12:43:00,8.0,5.0,-100.00,ENE,70,4.0,6.0,85,0.00,,,-99.99,,2013-01-03 17:43:00,
2013-01-03 12:52:00,9.0,5.0,-100.00,ENE,75,2.0,5.0,82,0.00,,,-99.99,,2013-01-03 17:52:00,
2013-01-03 13:03:00,10.0,4.0,-100.00,East,85,4.0,5.0,78,0.00,,,-99.99,,2013-01-03 18:03:00,
2013-01-03 13:13:00,10.0,4.0,-100.00,East,100,4.0,6.0,73,0.00,,,-99.99,,2013-01-03 18:13:00,
2013-01-03 13:22:00,12.0,4.0,-100.00,East,100,2.0,4.0,69,0.00,,,-99.99,,2013-01-03 18:22:00,
2013-01-03 13:33:00,15.0,6.0,-100.00,WSW,245,2.0,4.0,65,0.00,,,-99.99,,2013-01-03 18:33:00,
2013-01-03 13:42:00,15.0,3.0,-100.00,West,275,9.0,10.0,58,0.00,,,-99.99,,2013-01-03 18:42:00,
2013-01-03 13:53:00,13.0,0.0,-100.00,WNW,290,10.0,13.0,56,0.00,,,-99.99,,2013-01-03 18:53:00,
2013-01-03 14:03:00,11.0,-1.0,-100.00,WNW,285,12.0,15.0,56,0.00,,,-99.99,,2013-01-03 19:03:00,
2013-01-03 14:12:00,12.0,-1.0,-100.00,WNW,285,11.0,14.0,56,0.00,,,-99.99,,2013-01-03 19:12:00,
2013-01-03 14:56:00,14.0,0.0,-100.00,West,280,11.0,13.0,54,0.00,,,-99.99,,2013-01-03 19:56:00,
2013-01-03 15:03:00,15.0,1.0,-100.00,West,280,11.0,13.0,53,0.00,,,-99.99,,2013-01-03 20:03:00,
2013-01-03 15:12:00,15.0,1.0,-100.00,WNW,285,11.0,13.0,53,0.00,,,-99.99,,2013-01-03 20:12:00,
2013-01-03 15:22:00,15.0,1.0,-100.00,West,280,11.0,14.0,52,0.00,,,-99.99,,2013-01-03 20:22:00,
2013-01-03 15:33:00,16.0,2.0,-100.00,West,280,11.0,14.0,52,0.00,,,-99.99,,2013-01-03 20:33:00,
2013-01-03 15:42:00,16.0,2.0,-100.00,WNW,285,11.0,14.0,52,0.00,,,-99.99,,2013-01-03 20:42:00,
2013-01-03 15:53:00,16.0,2.0,-100.00,West,275,10.0,13.0,51,0.00,,,-99.99,,2013-01-03 20:53:00,
2013-01-03 16:02:00,17.0,1.0,-100.00,West,270,9.0,12.0,49,0.00,,,-99.99,,2013-01-03 21:02:00,
2013-01-03 16:12:00,17.0,1.0,-100.00,WNW,285,11.0,12.0,48,0.00,,,-99.99,,2013-01-03 21:12:00,
2013-01-03 16:22:00,17.0,1.0,-100.00,West,280,10.0,12.0,48,0.00,,,-99.99,,2013-01-03 21:22:00,
2013-01-03 16:36:00,17.0,1.0,-100.00,West,265,8.0,11.0,47,0.00,,,-99.99,,2013-01-03 21:36:00,
2013-01-03 16:48:00,18.0,1.0,-100.00,WSW,255,6.0,9.0,46,0.00,,,-99.99,,2013-01-03 21:48:00,
2013-01-03 17:03:00,20.0,2.0,-100.00,SW,230,4.0,6.0,45,0.00,,,-99.99,,2013-01-03 22:03:00,
2013-01-03 17:12:00,19.0,1.0,-100.00,SW,225,2.0,6.0,45,0.00,,,-99.99,,2013-01-03 22:12:00,
2013-01-03 17:22:00,14.0,-3.0,-100.00,WSW,240,4.0,6.0,45,0.00,,,-99.99,,2013-01-03 22:22:00,
2013-01-03 17:33:00,13.0,-3.0,-100.00,West,265,7.0,10.0,47,0.00,,,-99.99,,2013-01-03 22:33:00,
2013-01-03 17:42:00,13.0,-3.0,-100.00,West,270,7.0,9.0,49,0.00,,,-99.99,,2013-01-03 22:42:00,
2013-01-03 17:52:00,14.0,-1.0,-100.00,WNW,290,9.0,12.0,50,0.00,,,-99.99,,2013-01-03 22:52:00,
2013-01-03 18:03:00,13.0,-2.0,-100.00,West,270,7.0,12.0,51,0.00,,,-99.99,,2013-01-03 23:03:00,
2013-01-03 18:12:00,12.0,-2.0,-100.00,West,275,7.0,9.0,52,0.00,,,-99.99,,2013-01-03 23:12:00,
2013-01-03 18:22:00,11.0,-2.0,-100.00,West,260,6.0,9.0,52,0.00,,,-99.99,,2013-01-03 23:22:00,
2013-01-03 18:33:00,11.0,-3.0,-100.00,WSW,255,4.0,9.0,53,0.00,,,-99.99,,2013-01-03 23:33:00,
2013-01-03 18:43:00,10.0,-3.0,-100.00,SW,220,2.0,6.0,54,0.00,,,-99.99,,2013-01-03 23:43:00,
2013-01-03 18:52:00,8.0,-4.0,-100.00,SE,125,3.0,4.0,55,0.00,,,-99.99,,2013-01-03 23:52:00,
2013-01-03 19:03:00,7.0,-5.0,-100.00,ESE,115,3.0,4.0,56,0.00,,,-99.99,,2013-01-04 00:03:00,
2013-01-03 19:12:00,6.0,-5.0,-100.00,ESE,105,2.0,4.0,57,0.00,,,-99.99,,2013-01-04 00:12:00,
2013-01-03 19:22:00,5.0,-6.0,-100.00,ESE,115,0.0,2.0,58,0.00,,,-99.99,,2013-01-04 00:22:00,
2013-01-03 19:32:00,4.0,-7.0,-100.00,ESE,115,0.0,1.0,59,0.00,,,-99.99,,2013-01-04 00:32:00,
2013-01-03 19:42:00,4.0,-7.0,-100.00,ESE,115,1.0,1.0,60,0.00,,,-99.99,,2013-01-04 00:42:00,
2013-01-03 19:52:00,3.0,-7.0,-100.00,ESE,115,2.0,2.0,61,0.00,,,-99.99,,2013-01-04 00:52:00,
2013-01-03 20:02:00,3.0,-7.0,-100.00,ESE,105,2.0,4.0,62,0.00,,,-99.99,,2013-01-04 01:02:00,
2013-01-03 20:12:00,2.0,-7.0,-100.00,ESE,110,4.0,4.0,63,0.00,,,-99.99,,2013-01-04 01:12:00,
2013-01-03 20:22:00,2.0,-8.0,-100.00,ESE,105,3.0,4.0,64,0.00,,,-99.99,,2013-01-04 01:22:00,
2013-01-03 20:32:00,1.0,-7.0,-100.00,East,100,4.0,5.0,66,0.00,,,-99.99,,2013-01-04 01:32:00,
2013-01-03 20:42:00,1.0,-7.0,-100.00,East,100,4.0,5.0,67,0.00,,,-99.99,,2013-01-04 01:42:00,
2013-01-03 20:52:00,1.0,-7.0,-100.00,ESE,105,4.0,5.0,68,0.00,,,-99.99,,2013-01-04 01:52:00,
2013-01-03 21:02:00,1.0,-7.0,-100.00,East,100,6.0,6.0,70,0.00,,,-99.99,,2013-01-04 02:02:00,
2013-01-03 21:12:00,0.0,-7.0,-100.00,ESE,105,4.0,6.0,71,0.00,,,-99.99,,2013-01-04 02:12:00,
2013-01-03 21:22:00,0.0,-7.0,-100.00,ESE,115,3.0,6.0,72,0.00,,,-99.99,,2013-01-04 02:22:00,
2013-01-03 21:32:00,-1.0,-7.0,-100.00,ESE,110,5.0,6.0,73,0.00,,,-99.99,,2013-01-04 02:32:00,
2013-01-03 21:42:00,-1.0,-7.0,-100.00,ESE,110,3.0,6.0,74,0.00,,,-99.99,,2013-01-04 02:42:00,
2013-01-03 21:52:00,-1.0,-7.0,-100.00,ESE,105,4.0,7.0,75,0.00,,,-99.99,,2013-01-04 02:52:00,
2013-01-03 22:02:00,-2.0,-7.0,-100.00,ESE,105,5.0,6.0,76,0.00,,,-99.99,,2013-01-04 03:02:00,
2013-01-03 22:12:00,-2.0,-7.0,-100.00,East,100,7.0,7.0,77,0.00,,,-99.99,,2013-01-04 03:12:00,
2013-01-03 22:22:00,-2.0,-7.0,-100.00,ESE,105,5.0,7.0,78,0.00,,,-99.99,,2013-01-04 03:22:00,
2013-01-03 22:32:00,-3.0,-8.0,-100.00,East,100,6.0,6.0,78,0.00,,,-99.99,,2013-01-04 03:32:00,
2013-01-03 22:42:00,-2.0,-7.0,-100.00,ESE,110,6.0,7.0,80,0.00,,,-99.99,,2013-01-04 03:42:00,
2013-01-03 22:52:00,-2.0,-7.0,-100.00,ESE,110,6.0,7.0,80,0.00,,,-99.99,,2013-01-04 03:52:00,
2013-01-03 23:02:00,-3.0,-7.0,-100.00,East,95,4.0,6.0,81,0.00,,,-99.99,,2013-01-04 04:02:00,
2013-01-03 23:12:00,-3.0,-7.0,-100.00,ESE,115,6.0,8.0,82,0.00,,,-99.99,,2013-01-04 04:12:00,
2013-01-03 23:22:00,-3.0,-7.0,-100.00,ESE,110,8.0,9.0,83,0.00,,,-99.99,,2013-01-04 04:22:00,
2013-01-03 23:32:00,-3.0,-7.0,-100.00,ESE,110,7.0,9.0,84,0.00,,,-99.99,,2013-01-04 04:32:00,
2013-01-03 23:42:00,-4.0,-7.0,-100.00,ESE,105,5.0,7.0,84,0.00,,,-99.99,,2013-01-04 04:42:00,
2013-01-03 23:52:00,-4.0,-7.0,-100.00,ESE,105,6.0,7.0,85,0.00,,,-99.99,,2013-01-04 04:52:00,